| time (UTC) | temp C | wind direction | speed KPH | gust KPH | rain 1hr cm | rain 24hr cm | rain mn cm | humidity % | barometer mb |
| 20260904172008 | 25 | 270 | 8.0 | 12.9 | 0.00 | 0.00 | 0.00 | 58 | 1008.9 |
| 20260904171007 | 25 | 270 | 6.4 | 8.0 | 0.00 | 0.00 | 0.00 | 58 | 1008.9 |
| 20260904170015 | 26 | 270 | 9.7 | 14.5 | 0.00 | 0.00 | 0.00 | 56 | 1008.8 |
| 20260904165005 | 26 | 270 | 8.0 | 12.9 | 0.00 | 0.00 | 0.00 | 56 | 1008.7 |
| 20260904164007 | 26 | 270 | 8.0 | 14.5 | 0.00 | 0.00 | 0.00 | 54 | 1008.6 |
| 20260904163107 | 26 | 270 | 16.1 | 22.5 | 0.00 | 0.00 | 0.00 | 54 | 1008.5 |
| 20260904163007 | 26 | 270 | 16.1 | 22.5 | 0.00 | 0.00 | 0.00 | 54 | 1008.5 |
| 20260904162006 | 27 | 225 | 9.7 | 14.5 | 0.00 | 0.00 | 0.00 | 55 | 1008.4 |
| 20260904161006 | 26 | 270 | 8.0 | 11.3 | 0.00 | 0.00 | 0.00 | 57 | 1008.6 |
| 20260904160013 | 26 | 270 | 11.3 | 22.5 | 0.00 | 0.00 | 0.00 | 56 | 1008.8 |
| 20260904155006 | 27 | 0 | 12.9 | 22.5 | 0.00 | 0.00 | 0.00 | 54 | 1008.7 |
| 20260904154007 | 27 | 0 | 14.5 | 19.3 | 0.00 | 0.00 | 0.00 | 54 | 1008.9 |
| 20260904151007 | 26 | 225 | 17.7 | 22.5 | 0.00 | 0.00 | 0.00 | 55 | 1009.3 |
| 20260904150017 | 26 | 225 | 17.7 | 29.0 | 0.00 | 0.00 | 0.00 | 55 | 1009.4 |
| 20260904145007 | 26 | 270 | 16.1 | 25.7 | 0.00 | 0.00 | 0.00 | 54 | 1009.7 |
| 20260904144009 | 26 | 270 | 16.1 | 25.7 | 0.00 | 0.00 | 0.00 | 56 | 1009.8 |
| 20260904143013 | 26 | 270 | 17.7 | 27.4 | 0.00 | 0.00 | 0.00 | 56 | 1009.9 |
| 20260904142009 | 27 | 270 | 9.7 | 16.1 | 0.00 | 0.00 | 0.00 | 59 | 1010.1 |
| 20260904141010 | 26 | 270 | 8.0 | 16.1 | 0.00 | 0.00 | 0.00 | 59 | 1010.1 |
| 20260904140018 | 26 | 0 | 11.3 | 17.7 | 0.00 | 0.00 | 0.00 | 59 | 1010.4 |
| 20260904135009 | 26 | 270 | 12.9 | 17.7 | 0.00 | 0.00 | 0.00 | 61 | 1010.7 |
| 20260904134007 | 26 | 270 | 11.3 | 17.7 | 0.00 | 0.00 | 0.00 | 61 | 1010.8 |
| 20260904133013 | 26 | 270 | 8.0 | 14.5 | 0.00 | 0.00 | 0.00 | 63 | 1011.0 |
| 20260904132008 | 25 | 270 | 9.7 | 14.5 | 0.00 | 0.00 | 0.00 | 62 | 1011.2 |
| 20260904131007 | 25 | 270 | 12.9 | 17.7 | 0.00 | 0.00 | 0.00 | 63 | 1011.3 |
| 20260904130014 | 25 | 270 | 16.1 | 24.1 | 0.00 | 0.00 | 0.00 | 62 | 1011.3 |
| 20260904125009 | 26 | 270 | 17.7 | 27.4 | 0.00 | 0.00 | 0.00 | 61 | 1011.6 |
| 20260904124010 | 25 | 0 | 17.7 | 25.7 | 0.00 | 0.00 | 0.00 | 62 | 1011.7 |
| 20260904123008 | 25 | 270 | 17.7 | 29.0 | 0.00 | 0.00 | 0.00 | 61 | 1011.9 |
| 20260904122007 | 25 | 270 | 11.3 | 17.7 | 0.00 | 0.00 | 0.00 | 61 | 1012.0 |
| 20260904121007 | 25 | 225 | 12.9 | 19.3 | 0.00 | 0.00 | 0.00 | 62 | 1012.0 |
| 20260904120010 | 26 | 180 | 11.3 | 17.7 | 0.00 | 0.00 | 0.00 | 61 | 1012.1 |
| 20260904115012 | 25 | 270 | 17.7 | 24.1 | 0.00 | 0.00 | 0.00 | 62 | 1012.4 |
| 20260904114008 | 27 | 270 | 19.3 | 30.6 | 0.00 | 0.00 | 0.00 | 58 | 1012.1 |
| 20260904113008 | 26 | 270 | 17.7 | 25.7 | 0.00 | 0.00 | 0.00 | 60 | 1012.4 |
| 20260904112008 | 26 | 270 | 17.7 | 25.7 | 0.00 | 0.00 | 0.00 | 61 | 1012.6 |
| 20260904111009 | 26 | 270 | 14.5 | 24.1 | 0.00 | 0.00 | 0.00 | 65 | 1012.7 |
| 20260904110015 | 24 | 225 | 14.5 | 20.9 | 0.00 | 0.00 | 0.00 | 68 | 1013.1 |
| 20260904105008 | 24 | 270 | 12.9 | 24.1 | 0.00 | 0.00 | 0.00 | 65 | 1013.3 |
| 20260904104013 | 25 | 270 | 16.1 | 25.7 | 0.00 | 0.00 | 0.00 | 65 | 1013.3 |
| 20260904102013 | 25 | 270 | 12.9 | 19.3 | 0.00 | 0.00 | 0.00 | 63 | 1013.3 |
| 20260904101008 | 25 | 270 | 17.7 | 25.7 | 0.00 | 0.00 | 0.00 | 62 | 1013.5 |
| 20260904100013 | 26 | 225 | 14.5 | 22.5 | 0.00 | 0.00 | 0.00 | 63 | 1013.3 |
| 20260904095011 | 25 | 270 | 16.1 | 24.1 | 0.00 | 0.00 | 0.00 | 61 | 1013.7 |
| 20260904094011 | 25 | 225 | 12.9 | 20.9 | 0.00 | 0.00 | 0.00 | 62 | 1013.9 |
| 20260904093012 | 24 | 225 | 16.1 | 24.1 | 0.00 | 0.00 | 0.00 | 68 | 1014.3 |
| 20260904092008 | 23 | 270 | 12.9 | 20.9 | 0.00 | 0.00 | 0.00 | 68 | 1014.6 |
| 20260904091011 | 22 | 225 | 9.7 | 16.1 | 0.00 | 0.03 | 0.00 | 69 | 1014.8 |
| 20260904085008 | 21 | 270 | 6.4 | 11.3 | 0.00 | 0.03 | 0.00 | 75 | 1015.2 |
| 20260904084009 | 21 | 270 | 6.4 | 12.9 | 0.00 | 0.03 | 0.00 | 78 | 1015.4 |
| 20260904083008 | 20 | 270 | 6.4 | 9.7 | 0.00 | 0.03 | 0.00 | 78 | 1015.4 |
| 20260904082009 | 20 | 270 | 8.0 | 14.5 | 0.00 | 0.03 | 0.00 | 80 | 1015.8 |
| 20260904081006 | 20 | 270 | 9.7 | 17.7 | 0.00 | 0.03 | 0.00 | 78 | 1015.8 |
| 20260904080014 | 20 | 270 | 9.7 | 16.1 | 0.00 | 0.03 | 0.00 | 79 | 1015.8 |
| 20260904074009 | 20 | 270 | 14.5 | 19.3 | 0.00 | 0.03 | 0.00 | 77 | 1015.7 |
| 20260904073007 | 20 | 270 | 9.7 | 16.1 | 0.00 | 0.03 | 0.00 | 75 | 1015.6 |
| 20260904071009 | 19 | 315 | 4.8 | 6.4 | 0.00 | 0.03 | 0.00 | 77 | 1016.0 |
| 20260904070023 | 19 | 225 | 4.8 | 6.4 | 0.00 | 0.03 | 0.00 | 81 | 1016.0 |
| 20260904065013 | 18 | 225 | 3.2 | 6.4 | 0.00 | 0.03 | 0.00 | 80 | 1016.0 |
| 20260904064010 | 18 | 0 | 1.6 | 4.8 | 0.00 | 0.03 | 0.00 | 82 | 1016.1 |
| 20260904063012 | 18 | 135 | 3.2 | 6.4 | 0.00 | 0.03 | 0.00 | 80 | 1015.9 |
| 20260904061011 | 17 | 0 | 0.0 | 3.2 | 0.00 | 0.03 | 0.00 | 86 | 1016.2 |
| 20260904060018 | 17 | 0 | 0.0 | 3.2 | 0.00 | 0.03 | 0.00 | 85 | 1016.5 |
| 20260904055006 | 16 | 0 | 0.0 | 1.6 | 0.00 | 0.03 | 0.00 | 88 | 1016.4 |
| 20260904054009 | 16 | 0 | 0.0 | 1.6 | 0.00 | 0.03 | 0.00 | 91 | 1016.4 |
| 20260904053012 | 15 | 0 | 0.0 | 1.6 | 0.00 | 0.03 | 0.00 | 93 | 1016.6 |
| 20260904052008 | 15 | 0 | 1.6 | 4.8 | 0.00 | 0.03 | 0.00 | 93 | 1016.6 |
| 20260904051007 | 14 | 0 | 0.0 | 1.6 | 0.00 | 0.03 | 0.00 | 94 | 1016.5 |
| 20260904050015 | 14 | 0 | 0.0 | 3.2 | 0.00 | 0.03 | 0.00 | 94 | 1016.3 |
| 20260904045008 | 14 | 0 | 0.0 | 1.6 | 0.00 | 0.03 | 0.00 | 93 | 1016.5 |
| 20260904044007 | 14 | 0 | 0.0 | 1.6 | 0.00 | 0.03 | 0.00 | 93 | 1016.5 |
| 20260904043011 | 14 | 0 | 0.0 | 1.6 | 0.00 | 0.03 | 0.00 | 93 | 1016.5 |
| 20260904042009 | 14 | 0 | 0.0 | 3.2 | 0.00 | 0.03 | 0.00 | 93 | 1016.5 |
| 20260904041006 | 14 | 0 | 0.0 | 3.2 | 0.00 | 0.03 | 0.00 | 93 | 1016.5 |
| 20260904040013 | 14 | 0 | 0.0 | 0.0 | 0.00 | 0.03 | 0.00 | 92 | 1016.3 |
| 20260904035010 | 14 | 0 | 0.0 | 1.6 | 0.00 | 0.03 | 0.00 | 92 | 1016.3 |
| 20260904034007 | 14 | 0 | 0.0 | 1.6 | 0.00 | 0.03 | 0.00 | 93 | 1016.5 |
| 20260904033009 | 14 | 0 | 0.0 | 3.2 | 0.00 | 0.03 | 0.00 | 92 | 1016.6 |
| 20260904032009 | 14 | 0 | 0.0 | 1.6 | 0.00 | 0.03 | 0.00 | 92 | 1016.5 |
| 20260904031006 | 14 | 0 | 0.0 | 1.6 | 0.00 | 0.03 | 0.00 | 91 | 1016.5 |
| 20260904030009 | 15 | 0 | 0.0 | 1.6 | 0.00 | 0.03 | 0.00 | 91 | 1016.6 |
| 20260904025007 | 15 | 0 | 0.0 | 3.2 | 0.00 | 0.03 | 0.00 | 90 | 1016.8 |
| 20260904024011 | 15 | 0 | 0.0 | 1.6 | 0.00 | 0.03 | 0.00 | 89 | 1016.8 |
| 20260904023007 | 15 | 0 | 0.0 | 3.2 | 0.00 | 0.03 | 0.00 | 89 | 1016.9 |
| 20260904022008 | 15 | 0 | 0.0 | 3.2 | 0.00 | 0.03 | 0.00 | 89 | 1016.8 |
| 20260904021008 | 15 | 0 | 1.6 | 3.2 | 0.00 | 0.03 | 0.00 | 89 | 1016.8 |
| 20260904020015 | 15 | 0 | 0.0 | 3.2 | 0.00 | 0.03 | 0.00 | 89 | 1016.8 |
| 20260904014008 | 15 | 0 | 0.0 | 1.6 | 0.00 | 0.03 | 0.00 | 89 | 1016.7 |
| 20260904012008 | 15 | 0 | 1.6 | 3.2 | 0.00 | 0.03 | 0.00 | 89 | 1016.6 |
| 20260904011008 | 15 | 0 | 1.6 | 3.2 | 0.00 | 0.03 | 0.00 | 89 | 1016.7 |
| 20260904010020 | 15 | 0 | 1.6 | 3.2 | 0.00 | 0.03 | 0.00 | 89 | 1016.8 |
| 20260904005005 | 15 | 0 | 0.0 | 1.6 | 0.00 | 0.03 | 0.00 | 88 | 1016.9 |
| 20260904004008 | 15 | 0 | 0.0 | 1.6 | 0.00 | 0.03 | 0.00 | 88 | 1017.0 |
| 20260904003011 | 15 | 0 | 0.0 | 1.6 | 0.00 | 0.03 | 0.00 | 88 | 1017.0 |
| 20260904002005 | 15 | 0 | 0.0 | 1.6 | 0.00 | 0.03 | 0.00 | 88 | 1017.2 |
| 20260904001008 | 15 | 0 | 0.0 | 1.6 | 0.00 | 0.03 | 0.00 | 87 | 1017.2 |
| 20260904000016 | 15 | 0 | 0.0 | 3.2 | 0.00 | 0.03 | 0.00 | 87 | 1017.3 |
| 20260903235005 | 15 | 0 | 0.0 | 1.6 | 0.00 | 0.03 | 0.00 | 86 | 1017.3 |
| 20260903234008 | 15 | 0 | 0.0 | 0.0 | 0.00 | 0.03 | 0.00 | 86 | 1017.3 |
| 20260903233010 | 15 | 0 | 0.0 | 0.0 | 0.00 | 0.03 | 0.00 | 85 | 1017.4 |
| 20260903232006 | 15 | 0 | 0.0 | 1.6 | 0.00 | 0.03 | 0.00 | 85 | 1017.5 |
| 20260903231008 | 15 | 0 | 0.0 | 1.6 | 0.00 | 0.03 | 0.00 | 84 | 1017.6 |
| 20260903230015 | 16 | 0 | 0.0 | 3.2 | 0.00 | 0.03 | 0.00 | 83 | 1017.3 |
| 20260903225008 | 16 | 0 | 0.0 | 3.2 | 0.00 | 0.03 | 0.00 | 82 | 1017.4 |
| 20260903224009 | 16 | 0 | 1.6 | 3.2 | 0.00 | 0.03 | 0.00 | 81 | 1017.5 |
| 20260903223011 | 16 | 0 | 1.6 | 3.2 | 0.00 | 0.03 | 0.00 | 81 | 1017.5 |
| 20260903222006 | 16 | 0 | 0.0 | 3.2 | 0.00 | 0.03 | 0.00 | 80 | 1017.5 |
| 20260903221006 | 16 | 0 | 1.6 | 3.2 | 0.00 | 0.03 | 0.00 | 80 | 1017.5 |
| 20260903213008 | 17 | 270 | 4.8 | 8.0 | 0.00 | 0.03 | 0.03 | 79 | 1017.5 |
| 20260903211006 | 17 | 270 | 3.2 | 8.0 | 0.00 | 0.03 | 0.03 | 77 | 1017.5 |
| 20260903210012 | 17 | 225 | 6.4 | 11.3 | 0.00 | 0.03 | 0.03 | 76 | 1017.4 |
| 20260903205006 | 18 | 135 | 6.4 | 12.9 | 0.00 | 0.03 | 0.03 | 75 | 1017.6 |
| 20260903204008 | 18 | 270 | 8.0 | 11.3 | 0.00 | 0.03 | 0.03 | 75 | 1017.7 |
| 20260903203008 | 17 | 45 | 9.7 | 14.5 | 0.00 | 0.03 | 0.03 | 75 | 1017.6 |
| 20260903202009 | 17 | 270 | 9.7 | 14.5 | 0.00 | 0.03 | 0.03 | 75 | 1017.5 |
| 20260903201006 | 18 | 270 | 9.7 | 14.5 | 0.00 | 0.05 | 0.03 | 74 | 1017.7 |
| 20260903200011 | 18 | 270 | 8.0 | 12.9 | 0.00 | 0.05 | 0.03 | 74 | 1017.8 |
| 20260903195006 | 18 | 135 | 11.3 | 16.1 | 0.00 | 0.05 | 0.03 | 73 | 1017.8 |
| 20260903193008 | 18 | 135 | 9.7 | 16.1 | 0.00 | 0.05 | 0.03 | 71 | 1017.7 |
| 20260903192008 | 18 | 270 | 11.3 | 17.7 | 0.00 | 0.05 | 0.03 | 70 | 1017.5 |
| 20260903191008 | 19 | 270 | 14.5 | 20.9 | 0.00 | 0.05 | 0.03 | 68 | 1017.4 |
| 20260903190016 | 20 | 270 | 16.1 | 22.5 | 0.00 | 0.05 | 0.03 | 67 | 1017.1 |
| 20260903185008 | 20 | 270 | 14.5 | 24.1 | 0.00 | 0.05 | 0.03 | 65 | 1017.1 |
| 20260903184008 | 19 | 135 | 12.9 | 19.3 | 0.00 | 0.05 | 0.03 | 67 | 1017.1 |
| 20260903183011 | 19 | 135 | 4.8 | 6.4 | 0.00 | 0.05 | 0.03 | 69 | 1016.8 |
| 20260903182006 | 18 | 270 | 3.2 | 6.4 | 0.00 | 0.05 | 0.03 | 71 | 1016.8 |
| 20260903181008 | 18 | 225 | 0.0 | 3.2 | 0.00 | 0.05 | 0.03 | 72 | 1016.7 |
| 20260903175008 | 18 | 225 | 0.0 | 1.6 | 0.00 | 0.05 | 0.03 | 70 | 1016.5 |
| 20260903174007 | 19 | 225 | 0.0 | 0.0 | 0.00 | 0.05 | 0.03 | 69 | 1016.4 |
| 20260903173011 | 19 | 225 | 0.0 | 3.2 | 0.00 | 0.05 | 0.03 | 70 | 1016.5 |